Location: Gwatt
(46.7204°N, 7.6223°E)
Time: 01:51:43
(UTC+00:00)

ATLAS 3B R/B - Pass Details

Date: 18 September 2020
Orbit: 1016 x 1179 km, 63.8° (Epoch: 28 October)

Event Time Altitude Azimuth Distance (km) Brightness Sun altitude
Rises 21:22:01 0° 320° (NW) 3,834 6.6 -35.0°
Reaches altitude 10° 21:24:37 10° 320° (NW) 2,897 5.8 -35.3°
Enters shadow 21:30:03 60° 310° (NW) 1,240 3.1 -35.8°
